Time,TemperatureF,DewpointF,PressureIn,WindDirection,WindDirectionDegrees,WindSpeedMPH,WindSpeedGustMPH,Humidity,HourlyPrecipIn,Conditions,Clouds,dailyrainin,SoftwareType,DateUTC
2013-04-06 00:04:00,44.0,37.0,29.94,WNW,286,0.0,2.0,76,0.00,,,0.07,,2013-04-06 04:04:00,
2013-04-06 00:14:00,44.0,37.0,29.94,WNW,286,0.0,2.0,76,0.00,,,0.07,,2013-04-06 04:14:00,
2013-04-06 00:23:00,44.0,37.0,29.94,WNW,286,0.0,2.0,76,0.00,,,0.03,,2013-04-06 04:23:00,
2013-04-06 00:33:00,44.0,37.0,29.94,WNW,286,0.0,2.0,76,0.00,,,0.03,,2013-04-06 04:33:00,
2013-04-06 00:42:00,44.0,37.0,29.94,WNW,286,0.0,2.0,76,0.00,,,0.03,,2013-04-06 04:42:00,
2013-04-06 00:53:00,44.0,36.0,29.95,WNW,286,0.0,1.0,74,0.00,,,0.03,,2013-04-06 04:53:00,
2013-04-06 01:02:00,44.0,36.0,29.95,WNW,286,0.0,0.0,72,0.00,,,0.03,,2013-04-06 05:02:00,
2013-04-06 01:13:00,44.0,36.0,29.95,WNW,286,0.0,0.0,72,0.00,,,0.03,,2013-04-06 05:13:00,
2013-04-06 01:22:00,45.0,35.0,29.95,WNW,286,0.0,0.0,69,0.00,,,0.01,,2013-04-06 05:22:00,
2013-04-06 01:32:00,45.0,35.0,29.95,WNW,286,0.0,0.0,69,0.00,,,0.01,,2013-04-06 05:32:00,
2013-04-06 01:43:00,45.0,35.0,29.95,WNW,286,0.0,0.0,69,0.00,,,0.01,,2013-04-06 05:43:00,
2013-04-06 01:52:00,47.0,35.0,29.96,WNW,286,0.0,0.0,62,0.00,,,0.01,,2013-04-06 05:52:00,
2013-04-06 02:03:00,47.0,34.0,29.96,WNW,286,0.0,0.0,60,0.00,,,0.01,,2013-04-06 06:03:00,
2013-04-06 02:12:00,47.0,34.0,29.96,WNW,286,0.0,0.0,60,0.00,,,0.01,,2013-04-06 06:12:00,
2013-04-06 02:22:00,47.0,34.0,29.96,WNW,286,0.0,0.0,60,0.00,,,0.01,,2013-04-06 06:22:00,
2013-04-06 02:33:00,48.0,33.0,29.97,WNW,286,0.0,2.0,56,0.00,,,0.01,,2013-04-06 06:33:00,
2013-04-06 02:42:00,48.0,33.0,29.97,WNW,286,0.0,2.0,56,0.00,,,0.01,,2013-04-06 06:42:00,
2013-04-06 02:52:00,48.0,33.0,29.97,WNW,286,0.0,2.0,55,0.00,,,0.01,,2013-04-06 06:52:00,
2013-04-06 03:04:00,48.0,33.0,29.97,WNW,286,0.0,2.0,56,0.00,,,0.01,,2013-04-06 07:04:00,
2013-04-06 03:12:00,48.0,33.0,29.97,WNW,286,0.0,2.0,56,0.00,,,0.01,,2013-04-06 07:12:00,
2013-04-06 03:22:00,48.0,33.0,29.98,WNW,286,0.0,2.0,55,0.00,,,0.01,,2013-04-06 07:22:00,
2013-04-06 03:33:00,48.0,32.0,29.98,WNW,286,0.0,2.0,53,0.00,,,0.00,,2013-04-06 07:33:00,
2013-04-06 03:43:00,48.0,32.0,29.98,WNW,286,0.0,2.0,53,0.00,,,0.00,,2013-04-06 07:43:00,
2013-04-06 03:52:00,48.0,32.0,29.99,WNW,286,0.0,2.0,53,0.00,,,0.00,,2013-04-06 07:52:00,
2013-04-06 04:02:00,48.0,32.0,30.00,WNW,286,0.0,2.0,53,0.00,,,0.00,,2013-04-06 08:02:00,
2013-04-06 04:13:00,48.0,32.0,30.00,WNW,286,0.0,2.0,53,0.00,,,0.00,,2013-04-06 08:13:00,
2013-04-06 04:22:00,48.0,31.0,30.01,NNE,29,0.0,3.0,51,0.00,,,0.00,,2013-04-06 08:22:00,
2013-04-06 04:32:00,48.0,31.0,30.02,ESE,107,0.0,4.0,52,0.00,,,0.00,,2013-04-06 08:32:00,
2013-04-06 04:42:00,48.0,31.0,30.02,ESE,107,0.0,4.0,52,0.00,,,0.00,,2013-04-06 08:42:00,
2013-04-06 04:52:00,48.0,29.0,30.02,East,94,1.0,3.0,48,0.00,,,0.00,,2013-04-06 08:52:00,
2013-04-06 05:02:00,49.0,30.0,30.03,ENE,77,1.0,3.0,47,0.00,,,0.00,,2013-04-06 09:02:00,
2013-04-06 05:13:00,49.0,30.0,30.03,ENE,77,1.0,3.0,47,0.00,,,0.00,,2013-04-06 09:13:00,
2013-04-06 05:22:00,48.0,30.0,30.03,East,79,0.0,2.0,49,0.00,,,0.00,,2013-04-06 09:22:00,
2013-04-06 05:33:00,48.0,30.0,30.04,ESE,108,0.0,3.0,49,0.00,,,0.00,,2013-04-06 09:33:00,
2013-04-06 05:43:00,48.0,30.0,30.04,ESE,108,0.0,3.0,49,0.00,,,0.00,,2013-04-06 09:43:00,
2013-04-06 05:53:00,47.0,30.0,30.05,ESE,108,0.0,0.0,52,0.00,,,0.00,,2013-04-06 09:53:00,
2013-04-06 06:03:00,45.0,30.0,30.06,ESE,108,0.0,1.0,56,0.00,,,0.00,,2013-04-06 10:03:00,
2013-04-06 06:13:00,45.0,30.0,30.06,ESE,108,0.0,1.0,56,0.00,,,0.00,,2013-04-06 10:13:00,
2013-04-06 06:23:00,45.0,30.0,30.06,ESE,108,0.0,0.0,56,0.00,,,0.00,,2013-04-06 10:23:00,
2013-04-06 06:33:00,45.0,30.0,30.06,ESE,108,0.0,1.0,56,0.00,,,0.00,,2013-04-06 10:33:00,
2013-04-06 06:43:00,45.0,30.0,30.06,ESE,108,0.0,1.0,56,0.00,,,0.00,,2013-04-06 10:43:00,
2013-04-06 06:52:00,45.0,30.0,30.08,ESE,108,0.0,1.0,56,0.00,,,0.00,,2013-04-06 10:52:00,
2013-04-06 07:03:00,44.0,30.0,30.09,ESE,108,0.0,0.0,57,0.00,,,0.00,,2013-04-06 11:03:00,
2013-04-06 07:13:00,44.0,30.0,30.09,ESE,108,0.0,0.0,57,0.00,,,0.00,,2013-04-06 11:13:00,
2013-04-06 07:23:00,44.0,30.0,30.10,ESE,108,0.0,2.0,57,0.00,,,0.00,,2013-04-06 11:23:00,
2013-04-06 07:33:00,45.0,29.0,30.11,East,85,1.0,3.0,53,0.00,,,0.00,,2013-04-06 11:33:00,
2013-04-06 07:43:00,45.0,29.0,30.11,East,85,1.0,3.0,53,0.00,,,0.00,,2013-04-06 11:43:00,
2013-04-06 07:52:00,45.0,30.0,30.12,East,87,0.0,3.0,55,0.00,,,0.00,,2013-04-06 11:52:00,
2013-04-06 08:02:00,45.0,29.0,30.13,East,89,0.0,5.0,53,0.00,,,0.00,,2013-04-06 12:02:00,
2013-04-06 08:13:00,45.0,29.0,30.13,East,89,0.0,5.0,53,0.00,,,0.00,,2013-04-06 12:13:00,
2013-04-06 08:22:00,46.0,29.0,30.14,East,101,0.0,4.0,51,0.00,,,0.00,,2013-04-06 12:22:00,
2013-04-06 08:33:00,46.0,28.0,30.14,SE,129,0.0,2.0,49,0.00,,,0.00,,2013-04-06 12:33:00,
2013-04-06 08:44:00,46.0,28.0,30.14,SE,129,0.0,2.0,49,0.00,,,0.00,,2013-04-06 12:44:00,
2013-04-06 08:52:00,47.0,27.0,30.15,East,101,2.0,4.0,46,0.00,,,0.00,,2013-04-06 12:52:00,
2013-04-06 09:03:00,48.0,27.0,30.16,ENE,63,2.0,6.0,44,0.00,,,0.00,,2013-04-06 13:03:00,
2013-04-06 09:13:00,48.0,27.0,30.16,ENE,63,2.0,6.0,44,0.00,,,0.00,,2013-04-06 13:13:00,
2013-04-06 09:24:00,48.0,25.0,30.16,East,94,2.0,6.0,40,0.00,,,0.00,,2013-04-06 13:24:00,
2013-04-06 09:32:00,49.0,26.0,30.17,SSE,153,1.0,5.0,41,0.00,,,0.00,,2013-04-06 13:32:00,
2013-04-06 09:43:00,49.0,26.0,30.17,SSE,153,1.0,5.0,41,0.00,,,0.00,,2013-04-06 13:43:00,
2013-04-06 09:52:00,49.0,25.0,30.17,East,88,2.0,7.0,38,0.00,,,0.00,,2013-04-06 13:52:00,
2013-04-06 10:05:00,50.0,21.0,30.17,East,100,1.0,5.0,32,0.00,,,0.00,,2013-04-06 14:05:00,
2013-04-06 10:12:00,50.0,21.0,30.17,East,100,1.0,5.0,32,0.00,,,0.00,,2013-04-06 14:12:00,
2013-04-06 10:23:00,51.0,21.0,30.18,NE,40,1.0,4.0,31,0.00,,,0.00,,2013-04-06 14:23:00,
2013-04-06 10:33:00,51.0,16.0,30.19,ESE,111,2.0,4.0,25,0.00,,,0.00,,2013-04-06 14:33:00,
2013-04-06 10:43:00,51.0,16.0,30.19,ESE,111,2.0,4.0,25,0.00,,,0.00,,2013-04-06 14:43:00,
2013-04-06 10:52:00,51.0,15.0,30.19,ESE,104,1.0,5.0,23,0.00,,,0.00,,2013-04-06 14:52:00,
2013-04-06 11:02:00,52.0,15.0,30.20,East,97,3.0,7.0,23,0.00,,,0.00,,2013-04-06 15:02:00,
2013-04-06 11:12:00,52.0,15.0,30.20,East,97,3.0,7.0,23,0.00,,,0.00,,2013-04-06 15:12:00,
2013-04-06 11:23:00,52.0,13.0,30.20,ESE,114,1.0,8.0,21,0.00,,,0.00,,2013-04-06 15:23:00,
2013-04-06 11:33:00,53.0,17.0,30.20,ESE,115,3.0,8.0,24,0.00,,,0.00,,2013-04-06 15:33:00,
2013-04-06 11:43:00,53.0,17.0,30.20,ESE,115,3.0,8.0,24,0.00,,,0.00,,2013-04-06 15:43:00,
2013-04-06 11:53:00,53.0,13.0,30.20,ESE,106,1.0,7.0,20,0.00,,,0.00,,2013-04-06 15:53:00,
2013-04-06 12:05:00,54.0,14.0,30.20,East,83,2.0,7.0,20,0.00,,,0.00,,2013-04-06 16:05:00,
2013-04-06 12:17:00,54.0,14.0,30.20,East,83,2.0,7.0,20,0.00,,,0.00,,2013-04-06 16:17:00,
2013-04-06 12:23:00,55.0,20.0,30.20,SE,129,3.0,8.0,25,0.00,,,0.00,,2013-04-06 16:23:00,
2013-04-06 12:33:00,56.0,17.0,30.20,East,92,2.0,6.0,21,0.00,,,0.00,,2013-04-06 16:33:00,
2013-04-06 12:43:00,56.0,17.0,30.20,East,92,2.0,6.0,21,0.00,,,0.00,,2013-04-06 16:43:00,
2013-04-06 12:53:00,57.0,16.0,30.20,ESE,113,1.0,5.0,20,0.00,,,0.00,,2013-04-06 16:53:00,
2013-04-06 13:03:00,58.0,17.0,30.19,NW,318,1.0,4.0,20,0.00,,,0.00,,2013-04-06 17:03:00,
2013-04-06 13:13:00,58.0,17.0,30.19,NW,318,1.0,4.0,20,0.00,,,0.00,,2013-04-06 17:13:00,
2013-04-06 13:22:00,59.0,19.0,30.19,East,98,0.0,4.0,21,0.00,,,0.00,,2013-04-06 17:22:00,
2013-04-06 13:33:00,58.0,18.0,30.19,ENE,76,1.0,3.0,21,0.00,,,0.00,,2013-04-06 17:33:00,
2013-04-06 13:43:00,58.0,18.0,30.19,ENE,76,1.0,3.0,21,0.00,,,0.00,,2013-04-06 17:43:00,
2013-04-06 13:52:00,58.0,19.0,30.19,SSE,148,2.0,7.0,22,0.00,,,0.00,,2013-04-06 17:52:00,
2013-04-06 14:03:00,59.0,21.0,30.18,NE,40,2.0,5.0,23,0.00,,,0.00,,2013-04-06 18:03:00,
2013-04-06 14:13:00,59.0,21.0,30.18,NE,40,2.0,5.0,23,0.00,,,0.00,,2013-04-06 18:13:00,
2013-04-06 14:24:00,59.0,22.0,30.18,SSE,165,1.0,4.0,24,0.00,,,0.00,,2013-04-06 18:24:00,
2013-04-06 14:32:00,60.0,23.0,30.17,ESE,112,2.0,5.0,24,0.00,,,0.00,,2013-04-06 18:32:00,
2013-04-06 14:42:00,60.0,23.0,30.17,ESE,112,2.0,5.0,24,0.00,,,0.00,,2013-04-06 18:42:00,
2013-04-06 14:52:00,60.0,20.0,30.17,East,96,1.0,5.0,21,0.00,,,0.00,,2013-04-06 18:52:00,
2013-04-06 15:03:00,60.0,21.0,30.16,ESE,104,2.0,6.0,22,0.00,,,0.00,,2013-04-06 19:03:00,
2013-04-06 15:12:00,60.0,21.0,30.16,ESE,104,2.0,6.0,22,0.00,,,0.00,,2013-04-06 19:12:00,
2013-04-06 15:23:00,61.0,23.0,30.16,ENE,71,1.0,4.0,23,0.00,,,0.00,,2013-04-06 19:23:00,
2013-04-06 15:33:00,61.0,23.0,30.15,South,178,0.0,3.0,23,0.00,,,0.00,,2013-04-06 19:33:00,
2013-04-06 15:42:00,61.0,23.0,30.15,South,178,0.0,3.0,23,0.00,,,0.00,,2013-04-06 19:42:00,
2013-04-06 15:53:00,62.0,22.0,30.14,East,79,2.0,4.0,21,0.00,,,0.00,,2013-04-06 19:53:00,
2013-04-06 16:03:00,61.0,22.0,30.14,WSW,246,1.0,9.0,22,0.00,,,0.00,,2013-04-06 20:03:00,
2013-04-06 16:13:00,61.0,22.0,30.14,WSW,246,1.0,9.0,22,0.00,,,0.00,,2013-04-06 20:13:00,
2013-04-06 16:23:00,63.0,22.0,30.13,WNW,284,1.0,3.0,21,0.00,,,0.00,,2013-04-06 20:23:00,
2013-04-06 16:32:00,62.0,26.0,30.13,SSE,159,0.0,4.0,25,0.00,,,0.00,,2013-04-06 20:32:00,
2013-04-06 16:42:00,62.0,26.0,30.13,SSE,159,0.0,4.0,25,0.00,,,0.00,,2013-04-06 20:42:00,
2013-04-06 16:52:00,61.0,20.0,30.12,WNW,282,2.0,4.0,20,0.00,,,0.00,,2013-04-06 20:52:00,
2013-04-06 17:02:00,62.0,24.0,30.12,SW,232,1.0,3.0,23,0.00,,,0.00,,2013-04-06 21:02:00,
2013-04-06 17:14:00,62.0,23.0,30.11,ESE,112,1.0,4.0,22,0.00,,,0.00,,2013-04-06 21:14:00,
2013-04-06 17:22:00,62.0,23.0,30.11,ESE,112,1.0,4.0,22,0.00,,,0.00,,2013-04-06 21:22:00,
2013-04-06 17:33:00,62.0,23.0,30.12,SE,142,1.0,8.0,22,0.00,,,0.00,,2013-04-06 21:33:00,
2013-04-06 17:43:00,62.0,23.0,30.12,SE,142,1.0,8.0,22,0.00,,,0.00,,2013-04-06 21:43:00,
2013-04-06 17:52:00,62.0,22.0,30.12,SE,136,1.0,3.0,21,0.00,,,0.00,,2013-04-06 21:52:00,
2013-04-06 18:03:00,62.0,24.0,30.12,SSE,148,0.0,4.0,23,0.00,,,0.00,,2013-04-06 22:03:00,
2013-04-06 18:13:00,62.0,24.0,30.12,SSE,148,0.0,4.0,23,0.00,,,0.00,,2013-04-06 22:13:00,
2013-04-06 18:23:00,61.0,21.0,30.12,East,81,2.0,5.0,21,0.00,,,0.00,,2013-04-06 22:23:00,
2013-04-06 18:35:00,61.0,23.0,30.12,ENE,64,0.0,3.0,23,0.00,,,0.00,,2013-04-06 22:35:00,
2013-04-06 18:43:00,61.0,23.0,30.12,ENE,64,0.0,3.0,23,0.00,,,0.00,,2013-04-06 22:43:00,
2013-04-06 18:53:00,60.0,23.0,30.12,ENE,78,1.0,3.0,24,0.00,,,0.00,,2013-04-06 22:53:00,
2013-04-06 19:03:00,60.0,24.0,30.13,SSW,196,0.0,3.0,25,0.00,,,0.00,,2013-04-06 23:03:00,
2013-04-06 19:14:00,60.0,24.0,30.13,SSW,196,0.0,3.0,25,0.00,,,0.00,,2013-04-06 23:14:00,
2013-04-06 19:23:00,60.0,27.0,30.13,East,79,0.0,3.0,28,0.00,,,0.00,,2013-04-06 23:23:00,
2013-04-06 19:34:00,58.0,28.0,30.13,East,79,0.0,1.0,31,0.00,,,0.00,,2013-04-06 23:34:00,
2013-04-06 19:43:00,58.0,28.0,30.13,East,79,0.0,1.0,31,0.00,,,0.00,,2013-04-06 23:43:00,
2013-04-06 19:53:00,57.0,28.0,30.13,East,79,0.0,0.0,33,0.00,,,0.00,,2013-04-06 23:53:00,
2013-04-06 20:03:00,57.0,28.0,30.14,East,79,0.0,0.0,33,0.00,,,0.00,,2013-04-07 00:03:00,
2013-04-06 20:13:00,57.0,28.0,30.14,East,79,0.0,0.0,33,0.00,,,0.00,,2013-04-07 00:13:00,
2013-04-06 20:22:00,55.0,29.0,30.14,East,79,0.0,0.0,36,0.00,,,0.00,,2013-04-07 00:22:00,
2013-04-06 20:33:00,55.0,30.0,30.14,East,79,0.0,0.0,38,0.00,,,0.00,,2013-04-07 00:33:00,
2013-04-06 20:52:00,54.0,32.0,30.15,East,79,0.0,0.0,43,0.00,,,0.00,,2013-04-07 00:52:00,
2013-04-06 21:03:00,53.0,32.0,30.15,East,79,0.0,0.0,45,0.00,,,0.00,,2013-04-07 01:03:00,
2013-04-06 21:12:00,53.0,32.0,30.15,East,79,0.0,0.0,45,0.00,,,0.00,,2013-04-07 01:12:00,
2013-04-06 21:23:00,53.0,32.0,30.16,East,79,0.0,0.0,44,0.00,,,0.00,,2013-04-07 01:23:00,
2013-04-06 21:33:00,53.0,33.0,30.16,East,79,0.0,0.0,47,0.00,,,0.00,,2013-04-07 01:33:00,
2013-04-06 21:43:00,53.0,33.0,30.16,East,79,0.0,0.0,47,0.00,,,0.00,,2013-04-07 01:43:00,
2013-04-06 21:52:00,53.0,32.0,30.16,East,79,0.0,1.0,45,0.00,,,0.00,,2013-04-07 01:52:00,
2013-04-06 22:03:00,52.0,32.0,30.17,East,79,0.0,1.0,47,0.00,,,0.00,,2013-04-07 02:03:00,
2013-04-06 22:12:00,52.0,32.0,30.17,East,79,0.0,1.0,47,0.00,,,0.00,,2013-04-07 02:12:00,
2013-04-06 22:23:00,51.0,34.0,30.17,East,80,0.0,0.0,51,0.00,,,0.00,,2013-04-07 02:23:00,
2013-04-06 22:33:00,50.0,34.0,30.17,East,80,0.0,0.0,53,0.00,,,0.00,,2013-04-07 02:33:00,
2013-04-06 22:43:00,50.0,34.0,30.17,East,80,0.0,0.0,53,0.00,,,0.00,,2013-04-07 02:43:00,
2013-04-06 22:52:00,49.0,36.0,30.17,East,80,0.0,1.0,60,0.00,,,0.00,,2013-04-07 02:52:00,
2013-04-06 23:03:00,50.0,33.0,30.18,ESE,112,1.0,3.0,51,0.00,,,0.00,,2013-04-07 03:03:00,
2013-04-06 23:13:00,50.0,33.0,30.18,ESE,112,1.0,3.0,51,0.00,,,0.00,,2013-04-07 03:13:00,
2013-04-06 23:22:00,51.0,34.0,30.19,ESE,103,1.0,5.0,52,0.00,,,0.00,,2013-04-07 03:22:00,
2013-04-06 23:35:00,50.0,35.0,30.19,ESE,117,0.0,4.0,56,0.00,,,0.00,,2013-04-07 03:35:00,
2013-04-06 23:44:00,50.0,35.0,30.19,ESE,117,0.0,4.0,56,0.00,,,0.00,,2013-04-07 03:44:00,
2013-04-06 23:53:00,50.0,35.0,30.19,ESE,111,1.0,5.0,57,0.00,,,0.00,,2013-04-07 03:53:00,